WA7BMK Weather Reports


Display with metric or nautical units.
time (UTC)temp
F
wind
direction
speed
MPH
gust
MPH
rain 1hr
in
rain 24hr
in
rain mn
in
humidity
%
barometer
mb
20260506011541 65 277 1.0 7.0 0.00 0.00 0.00 68 1015.5
20260506010037 66 289 1.0 5.0 0.00 0.00 0.00 67 1015.5
20260506004541 66 267 2.0 4.0 0.00 0.00 0.00 67 1015.6
20260506003036 66 254 2.0 5.0 0.00 0.00 0.00 66 1015.6
20260506001544 66 296 1.0 7.0 0.00 0.00 0.00 66 1015.7
20260506000043 67 318 1.0 4.0 0.00 0.00 0.00 65 1015.8
20260505234548 66 55 1.0 5.0 0.00 0.00 0.00 65 1015.8
20260505233037 66 0 1.0 7.0 0.00 0.00 0.00 64 1016.0
20260505231547 65 199 2.0 7.0 0.00 0.00 0.00 66 1016.0
20260505230038 64 178 0.0 4.0 0.00 0.00 0.00 68 1016.1
20260505224539 65 0 1.0 6.0 0.00 0.00 0.00 67 1016.3
20260505223042 63 344 0.0 4.0 0.00 0.00 0.00 69 1016.5
20260505221539 63 273 1.0 8.0 0.00 0.00 0.00 70 1016.6
20260505220040 63 324 1.0 4.0 0.00 0.00 0.00 70 1016.6
20260505214548 62 282 0.0 3.0 0.00 0.00 0.00 72 1016.8
20260505213049 61 265 1.0 4.0 0.00 0.00 0.00 71 1016.9
20260505211537 61 141 3.0 6.0 0.00 0.00 0.00 71 1016.8
20260505210035 61 0 1.0 7.0 0.00 0.00 0.00 73 1016.9
20260505204537 61 304 1.0 6.0 0.00 0.00 0.00 72 1017.0
20260505203037 60 260 1.0 5.0 0.00 0.00 0.00 73 1017.0
20260505201547 60 227 1.0 7.0 0.00 0.00 0.00 72 1017.0
20260505200037 59 0 1.0 4.0 0.00 0.00 0.00 73 1017.0
20260505194537 59 0 0.0 5.0 0.00 0.00 0.00 75 1017.0
20260505193044 58 360 1.0 4.0 0.00 0.00 0.00 75 1017.0
20260505191534 57 158 2.0 6.0 0.00 0.00 0.00 76 1017.0
20260505190036 57 284 1.0 5.0 0.00 0.00 0.00 76 1017.0
20260505184537 57 170 1.0 6.0 0.00 0.00 0.00 77 1017.0
20260505183047 57 0 0.0 4.0 0.00 0.00 0.00 78 1017.1
20260505181535 57 225 1.0 6.0 0.00 0.00 0.00 78 1017.0
20260505180040 56 159 1.0 4.0 0.00 0.00 0.00 78 1016.8
20260505174540 56 360 1.0 4.0 0.00 0.00 0.00 79 1016.7
20260505173040 55 360 0.0 4.0 0.00 0.00 0.00 80 1016.7
20260505171541 55 360 0.0 5.0 0.00 0.00 0.00 80 1016.6
20260505170035 55 360 0.0 5.0 0.00 0.00 0.00 81 1016.6
20260505164538 55 360 0.0 4.0 0.00 0.00 0.00 81 1016.7
20260505163035 55 0 1.0 6.0 0.00 0.00 0.00 81 1016.5
20260505161536 55 360 0.0 3.0 0.00 0.00 0.00 81 1016.4
20260505153036 54 190 1.0 4.0 0.00 0.00 0.00 82 1016.3
20260505151535 54 0 0.0 5.0 0.00 0.00 0.00 82 1016.2
20260505124537 54 188 1.0 5.0 0.00 0.00 0.00 83 1014.9
20260505123054 54 248 0.0 3.0 0.00 0.00 0.00 84 1014.9
20260505121536 54 286 1.0 6.0 0.00 0.00 0.00 84 1014.8
20260505120041 54 0 0.0 6.0 0.00 0.00 0.00 84 1014.5
20260505114546 54 219 2.0 7.0 0.00 0.00 0.00 85 1014.6
20260505113034 54 206 0.0 4.0 0.00 0.00 0.00 85 1014.6
20260505111533 53 145 0.0 4.0 0.00 0.00 0.00 85 1014.6
20260505101530 53 0 0.0 4.0 0.00 0.00 0.00 86 1014.2
20260505100034 53 201 0.0 4.0 0.00 0.00 0.00 85 1014.1
20260505094534 53 168 1.0 7.0 0.00 0.00 0.00 85 1014.0
20260505093042 53 170 2.0 5.0 0.00 0.00 0.00 85 1013.9
20260505091543 53 186 1.0 7.0 0.00 0.00 0.00 86 1013.9
20260505090048 53 0 0.0 3.0 0.00 0.00 0.00 86 1013.8
20260505084535 53 152 1.0 4.0 0.00 0.00 0.00 87 1013.8
20260505083034 53 0 0.0 3.0 0.00 0.00 0.00 88 1013.8
20260505081538 52 0 0.0 0.0 0.00 0.00 0.00 88 1013.8
20260505080047 52 0 0.0 0.0 0.00 0.00 0.00 86 1013.7
20260505074535 52 0 0.0 1.0 0.00 0.00 0.00 87 1013.6
20260505073048 52 0 0.0 4.0 0.00 0.00 0.00 87 1013.3
20260505071533 52 236 0.0 4.0 0.00 0.00 0.00 86 1013.2
20260505070049 53 0 1.0 3.0 0.00 0.00 0.00 86 1013.2
20260505064537 53 0 0.0 0.0 0.00 0.00 0.00 85 1013.0
20260505063036 53 0 0.0 2.0 0.00 0.00 0.00 84 1012.9
20260505061533 54 0 0.0 3.0 0.00 0.00 0.00 84 1012.6
20260505060035 54 259 0.0 4.0 0.00 0.00 0.00 83 1012.5
20260505054530 54 0 0.0 2.0 0.00 0.00 0.00 83 1012.2
20260505053037 55 225 1.0 4.0 0.00 0.00 0.00 82 1012.2
20260505051536 55 288 0.0 4.0 0.00 0.00 0.00 81 1012.1
20260505050111 56 0 1.0 5.0 0.00 0.00 0.00 80 1012.0
20260505041548 57 0 1.0 6.0 0.00 0.00 0.00 77 1011.6
20260505040052 58 360 2.0 9.0 0.00 0.00 0.00 75 1011.5
20260505034537 60 226 1.0 6.0 0.00 0.00 0.00 72 1011.4
20260505033042 61 0 1.0 5.0 0.00 0.00 0.00 71 1011.1
20260505031544 62 360 2.0 6.0 0.00 0.00 0.00 69 1011.0
20260505030040 63 0 0.0 5.0 0.00 0.00 0.00 67 1010.8
20260505024537 65 291 1.0 8.0 0.00 0.00 0.00 65 1010.4
20260505023043 66 355 0.0 7.0 0.00 0.00 0.00 64 1010.4
20260505021540 68 303 2.0 7.0 0.00 0.00 0.00 62 1010.3
20260505020036 70 294 1.0 5.0 0.00 0.00 0.00 59 1010.3
20260505014553 70 310 2.0 10.0 0.00 0.00 0.00 58 1010.3
20260505013031 73 241 1.0 6.0 0.00 0.00 0.00 55 1010.2